Regional Weather Roundup
Issued by NWS

Home | Current Version | Previous Version | Graphics & Text | Print | Product List | Glossary On
Versions: 1 2 3 4 5 6 7 8 9 10 11 12 13 14 15 16 17 18 19 20 21 22 23 24 25 26 27 28 29 30 31 32 33 34 35 36 37 38 39 40 41 42 43 44 45 46 47 48 49 50
000
ASUS45 KBOU 070010
RWRCO

WEATHER ROUNDUP FOR COLORADO
NATIONAL WEATHER SERVICE DENVER/BOULDER CO
600 PM MDT MON JUL 06 2015

NOTE: "FAIR" INDICATES FEW OR NO CLOUDS BELOW 12000 FEET WITH NO
SIGNIFICANT WEATHER AND/OR OBSTRUCTIONS TO VISIBILITY.

COZ001>005-013-030-031-070100-
...NORTHWEST COLORADO...

CITY           SKY/WX    TMP DP  RH WIND       PRES   REMARKS
CRAIG          PTSUNNY   79  50  36 CALM      30.14F
HAYDEN         PTSUNNY   73  48  40 NE5       30.17F
MEEKER         PTSUNNY   76  53  44 S7        30.16F
MOUNT WERNER   NOT AVBL
STEAMBOAT SPGS PTSUNNY   73  49  42 CALM      30.20F
WALDEN         PTSUNNY   63  48  59 NW9       30.31F
$$

COZ006>008-011-070100-
...WEST CENTRAL VALLEYS...

CITY           SKY/WX    TMP DP  RH WIND       PRES   REMARKS
GRAND JUNCTION PTSUNNY   84  41  21 CALM      30.03F
MONTROSE       MOSUNNY   84  45  25 W12       30.12F
EAGLE          MOSUNNY   73  48  40 CALM      30.20F
RIFLE          PTSUNNY   81  51  35 CALM      30.09F
DELTA          MOSUNNY   84  47  28 CALM      30.08S
NUCLA          MOSUNNY   75  43  31 N7        30.17F
$$

COZ017>023-064>068-070100-
...SOUTHWEST COLORADO...

CITY           SKY/WX    TMP DP  RH WIND       PRES   REMARKS
DURANGO        LGT RAIN  64  59  83 SW5       30.19F
CORTEZ         PTSUNNY   82  51  34 W18G24    30.12S
PAGOSA SPRINGS CLOUDY    65  52  62 E3        30.28F
TELLURIDE      PTSUNNY   71  42  34 W13G20    30.36F
WOLF CREEK PAS NOT AVBL
$$

COZ009-010-012-014-032>034-037-058>063-070100-
...CENTRAL COLORADO...

CITY           SKY/WX    TMP DP  RH WIND       PRES   REMARKS
ASPEN          MOSUNNY   70  47  43 CALM      30.26F
BUENA VISTA    PTSUNNY   64  51  62 E8        30.34F
COPPER MTN     CLOUDY    54  43  66 SW3       30.59F
BERTHOUD PASS  LGT RAIN  37  28  70 CALM      30.64F
COTTONWOOD PAS NOT AVBL
GUNNISON       MOSUNNY   70  45  40 N10       30.30F
KREMMLING      PTSUNNY   70  46  43 CALM      30.27F
LEADVILLE      PTSUNNY   56  42  59 W7        30.42F
MONARCH PASS   FOG       46  45  93 E16       30.68R VSB<1/4
SALIDA         CLOUDY    58  55  90 SE9       30.41R
SUNLIGHT       PTSUNNY   59  46  63 CALM      30.51F
WILKERSON PASS SNOW      45  43  93 E3        30.58S VSB<1/4
$$

COZ069>075-070100-
...SAN LUIS VALLEY/SANGRE DE CRISTO MOUNTAINS...

CITY           SKY/WX    TMP DP  RH WIND       PRES   REMARKS
ALAMOSA        PTSUNNY   69  49  48 E15       30.24S
LA VETA PASS   RAIN      46  45  93 MISG      30.47S VSB 1/4
SAGUACHE       CLOUDY    57  54  88 CALM      30.32R THUNDER
$$

COZ035-036-038>040-070100-
...NORTHERN COLORADO FRONT RANGE...

CITY           SKY/WX    TMP DP  RH WIND       PRES   REMARKS
DENVER INTL AP CLOUDY    64  53  67 E9        30.26F
DMNS CITY PARK   N/A     60  58  90 N6G13     30.27S
AURORA         CLOUDY    62  56  83 E9        30.28F
FRONT RANGE AP CLOUDY    63  54  72 E8        30.28F HAZE
ERIE MUNI ARPT DRIZZLE   61  58  91 CALM      30.27R
BOULDER MUN AP DRIZZLE   59  59 100 CALM      30.28S
CENTENNIAL     CLOUDY    60  55  83 E7        30.28F
BROOMFIELD     DRIZZLE   59  57  94 CALM      30.30
FORT COLLINS   PTSUNNY   64  54  68 E6        30.27S
LONGMONT       CLOUDY    63  60  90 W3        30.28S
$$

COZ041-046-047-076>085-087-088-070100-
...PIKES PEAK/PALMER DIVIDE AND SOUTHERN FOOTHILLS...

CITY           SKY/WX    TMP DP  RH WIND       PRES   REMARKS
COLO. SPRINGS  CLOUDY    59  55  87 NE15      30.29F
A. F. ACADEMY  LGT RAIN  57  55  94 N9        30.30F
ELLICOTT       CLOUDY   N/A N/A N/A NE12      30.27F
FALCON         CLOUDY    56  55  97 NE9       30.33F FOG
FORT CARSON    DRIZZLE   59  58  98 NE6       30.27F
LIMON          CLOUDY    65  53  65 N12       30.25F
MONUMENT HILL  CLOUDY    54  52  94 MISG      30.34F FOG
TRINIDAD       CLOUDY    62  60  93 E10       30.23F
$$

COZ042>045-048>051-090-091-070100-
...NORTHEAST COLORADO...

CITY           SKY/WX    TMP DP  RH WIND       PRES   REMARKS
GREELEY ARPT   PTSUNNY   66  54  63 E8        30.25S
AKRON          CLOUDY    67  53  61 NE13      30.22F HAZE
BURLINGTON     PTSUNNY   72  54  53 N16G25    30.16F HAZE
WRAY           MOSUNNY   73  50  44 N14       30.16S HAZE
STERLING       CLOUDY    70  54  56 NE7         N/A  HAZE
HOLYOKE        MOSUNNY   73  52  46 NE14      30.17F HAZE
FORT MORGAN    CLOUDY    66  52  59 NE7       30.23F HAZE
$$

COZ086-089-092>099-070100-
...SOUTHEAST COLORADO...

CITY           SKY/WX    TMP DP  RH WIND       PRES   REMARKS
PUEBLO         LGT RAIN  68  61  78 NE12      30.21F
LA JUNTA       CLOUDY    72  58  61 N8        30.17F
LAMAR          PTSUNNY   75  57  53 N13       30.10F HAZE
SPRINGFIELD      N/A     67  59  75 N20       30.14F
$$



USA.gov is the U.S. government's official web portal to all federal, state and local government web resources and services.